Terminal Aerodrome Forecast
Issued by NWS

Home | Current Version | Previous Version | Text Only | Print | Product List | Glossary On
Versions: 1 2 3 4 5 6 7 8 9 10 11 12 13 14 15 16 17 18 19 20 21 22 23 24 25 26 27 28
000
FTUS45 KBOI 200528
TAFMYL
TAF
KMYL 200528Z 2006/2106 15005KT 3SM BR SCT020 BKN050
     FM200730 VRB04KT 1/2SM FZFG BKN005
     FM201800 16005KT P6SM SCT005 BKN050
     FM210300 VRB04KT 1 1/2SM -SHSN SCT010 OVC020=

USA.gov is the U.S. government's official web portal to all federal, state and local government web resources and services.